{"data":{"norad_id":56336,"intl_designator":"2023-058V","name":"STARLINK-5562","alt_names":[],"object_type":"PAYLOAD","status":"ACTIVE","operator":null,"country":"US","launch_date":"2023-04-27","launch_site_code":"AFWTR","launch_vehicle":null,"mission":null,"orbit_class":"UNKNOWN","rcs_meters":null,"size_class":null,"mass_kg":null,"dimensions":null,"purposes":["comms"],"wikipedia_slug":null,"has_3d_model":false,"image_url":null,"decayed_at":null,"tle_current":{"epoch":"2026-05-24T23:25:37.644096Z","epoch_age_seconds":73146,"freshness":"FRESH","line1":"1 56336U 23058V   26144.97613014 -.00008128  00000+0 -55926-3 0  9999","line2":"2 56336  97.4475 144.9500 0001604  85.6017 274.5393 15.05691920169605","mean_motion":15.0569192,"eccentricity":0.0001604,"inclination_deg":97.4475,"raan_deg":144.95,"arg_perigee_deg":85.6017,"mean_anomaly_deg":274.5393,"bstar":-0.00055926,"rev_number":16960,"period_min":95.63709420716,"perigee_km":548.27139743914,"apogee_km":550.4937457177,"semimajor_km":6927.5195715784,"source":"CELESTRAK","updated_at":"2026-05-25T13:38:18.003513Z"}}}